Weather History for Wadena, MN

Change the Weather History Date:

Saturday, December 21, 2013

  Actual Average Record
Temperature  
Mean Temperature 3 °F -  
Max Temperature 6 °F 17 °F 43 °F (1979)
Min Temperature 0 °F -3 °F -35 °F (1983)
Degree Days  
Heating Degree Days 62    
Moisture  
Dew Point 0 °F    
Average Humidity 86    
Maximum Humidity 92    
Minimum Humidity 79    
Precipitation  
Precipitation 0.00 in - - ()
Sea Level Pressure  
Sea Level Pressure 29.92 in    
Wind  
Wind Speed 2 mph (NNE)    
Max Wind Speed 10 mph    
Max Gust Speed -    
Visibility 6 miles    
Events Fog , Snow    
Averages and records for this station are not official NWS values.
T = Trace of Precipitation, MM = Missing Value Source: NWS Daily Summary

Daily Weather History Graph

Daily Weather History Graph

Search for Another Location

Airport:

Trip Planner

Search our weather history database for the weather conditions in past years. The results will help you decide how hot, cold, wet, or windy it might be!

Date:

Astronomy

Dec. 21, 2013 Rise Set
Actual Time 8:01 AM CST 4:36 PM CST
Civil Twilight 7:26 AM CST 5:11 PM CST
Nautical Twilight 6:48 AM CST 5:50 PM CST
Astronomical Twilight 6:11 AM CST 6:26 PM CST
Moon 9:07 PM CST (12/21) 10:15 AM CST (12/21)
Length of Visible Light 9h 45m
Length of Day
8h 34m
Waning Gibbous, 84% of the Moon is Illuminated
Dec 21
Waning Gibbous
Dec 25
Last Quarter
Jan 1
New
Jan 7
First Quarter
Jan 15
Full

Hourly Weather History & Observations

Time (CST) Temp. Windchill Dew Point Humidity Pressure Visibility Wind Dir Wind Speed Gust Speed Precip Events Conditions
12:14 AM 1.4 °F - -2.2 °F 85% 29.81 in 10.0 mi Calm Calm - N/A   Scattered Clouds
12:35 AM 1.4 °F - -2.2 °F 85% 29.81 in 10.0 mi Calm Calm - N/A   Mostly Cloudy
12:53 AM -0.4 °F - -2.2 °F 92% 29.81 in 7.0 mi Calm Calm - N/A Snow Light Snow
1:15 AM -0.4 °F - -2.2 °F 92% 29.80 in 5.0 mi Calm Calm - N/A Snow Light Snow
1:35 AM -0.4 °F - -2.2 °F 92% 29.81 in 5.0 mi Calm Calm - N/A Snow Light Snow
1:52 AM 1.4 °F - -2.2 °F 85% 29.81 in 10.0 mi Calm Calm - N/A   Overcast
2:15 AM 1.4 °F - -2.2 °F 85% 29.82 in 7.0 mi Calm Calm - N/A Snow Light Snow
2:35 AM 1.4 °F - -2.2 °F 85% 29.82 in 4.0 mi Calm Calm - N/A Snow Light Snow
2:53 AM 1.4 °F - -0.4 °F 92% 29.83 in 4.0 mi Calm Calm - N/A Snow Light Snow
3:15 AM 1.4 °F - -0.4 °F 92% 29.84 in 0.5 mi Calm Calm - N/A Snow Light Snow
3:35 AM 1.4 °F - -0.4 °F 92% 29.84 in 0.2 mi Calm Calm - N/A Snow Light Snow
3:53 AM 1.4 °F - -2.2 °F 85% 29.83 in 0.2 mi Calm Calm - N/A Snow Light Snow
4:15 AM 1.4 °F - -2.2 °F 85% 29.83 in 0.2 mi Calm Calm - N/A Snow Light Snow
4:35 AM 1.4 °F - -2.2 °F 85% 29.82 in 0.5 mi Calm Calm - N/A Snow Light Snow
4:52 AM 1.4 °F - -2.2 °F 85% 29.82 in 0.5 mi Calm Calm - N/A Snow Light Snow
5:15 AM 1.4 °F - -2.2 °F 85% 29.83 in 0.5 mi Calm Calm - N/A Fog Light Freezing Fog
5:35 AM 1.4 °F - -2.2 °F 85% 29.83 in 0.5 mi Calm Calm - N/A Fog Light Freezing Fog
5:53 AM 1.4 °F - -2.2 °F 85% 29.84 in 0.5 mi Calm Calm - N/A Fog Light Freezing Fog
6:15 AM 1.4 °F - -2.2 °F 85% 29.84 in 0.5 mi Calm Calm - N/A Fog Light Freezing Fog
6:35 AM 1.4 °F - -2.2 °F 85% 29.84 in 0.5 mi Calm Calm - N/A Snow Light Snow
6:53 AM 1.4 °F - -2.2 °F 85% 29.85 in 0.8 mi Calm Calm - N/A   Overcast
7:15 AM 1.4 °F - -2.2 °F 85% 29.86 in 0.5 mi Calm Calm - N/A Fog Light Freezing Fog
7:35 AM 1.4 °F - -2.2 °F 85% 29.88 in 0.5 mi Calm Calm - N/A Fog Light Freezing Fog
7:52 AM -0.4 °F - -2.2 °F 92% 29.87 in 0.5 mi Calm Calm - N/A Snow Light Snow
8:15 AM -0.4 °F - -4.0 °F 85% 29.88 in 0.2 mi Calm Calm - N/A Snow Light Snow
8:35 AM -0.4 °F - -4.0 °F 85% 29.90 in 0.2 mi Calm Calm - N/A Snow Light Snow
8:53 AM -0.4 °F - -4.0 °F 85% 29.91 in 0.8 mi Calm Calm - N/A Snow Light Snow
9:15 AM -0.4 °F - -4.0 °F 85% 29.90 in 0.5 mi Calm Calm - N/A Snow Light Snow
9:35 AM -0.4 °F - -4.0 °F 85% 29.92 in 0.5 mi Calm Calm - N/A Snow Light Snow
9:52 AM 1.4 °F - -2.2 °F 85% 29.93 in 0.5 mi Calm Calm - N/A Snow Light Snow
10:14 AM 1.4 °F - -2.2 °F 85% 29.94 in 1.0 mi Calm Calm - N/A Snow Light Snow
10:35 AM 1.4 °F - -2.2 °F 85% 29.94 in 1.0 mi Calm Calm - N/A Snow Light Snow
10:53 AM 1.4 °F - -2.2 °F 85% 29.95 in 1.0 mi Calm Calm - N/A Snow Light Snow
11:15 AM 1.4 °F - -2.2 °F 85% 29.94 in 1.2 mi Calm Calm - N/A Snow Light Snow
11:35 AM 3.2 °F - -0.4 °F 85% 29.95 in 0.8 mi Calm Calm - N/A Snow Light Snow
11:52 AM 3.2 °F - -0.4 °F 85% 29.94 in 0.8 mi Calm Calm - N/A Snow Light Snow
12:15 PM 5.0 °F - 1.4 °F 85% 29.94 in 4.0 mi Calm Calm - N/A Snow Light Snow
12:35 PM 5.0 °F -4.1 °F 1.4 °F 85% 29.93 in 7.0 mi NNE 4.6 mph - N/A Snow Light Snow
12:52 PM 6.8 °F -3.5 °F 3.2 °F 85% 29.93 in 10.0 mi NNE 5.8 mph - N/A   Overcast
1:14 PM 5.0 °F -2.1 °F 1.4 °F 85% 29.95 in 10.0 mi NE 3.5 mph - N/A Snow Light Snow
1:35 PM 6.8 °F -0.1 °F 3.2 °F 85% 29.95 in 4.0 mi NNE 3.5 mph - N/A Snow Light Snow
1:53 PM 6.8 °F -3.5 °F 3.2 °F 85% 29.95 in 7.0 mi North 5.8 mph - N/A Snow Light Snow
2:15 PM 5.0 °F -6.9 °F 1.4 °F 85% 29.95 in 7.0 mi North 6.9 mph - N/A Snow Light Snow
2:35 PM 5.0 °F -6.9 °F 1.4 °F 85% 29.97 in 10.0 mi NNE 6.9 mph - N/A Snow Light Snow
2:53 PM 5.0 °F -4.1 °F 1.4 °F 85% 29.98 in 10.0 mi North 4.6 mph - N/A   Overcast
3:15 PM 5.0 °F -4.1 °F 1.4 °F 85% 29.97 in 10.0 mi North 4.6 mph - N/A   Overcast
3:34 PM 5.0 °F -5.6 °F 1.4 °F 85% 29.98 in 10.0 mi NNE 5.8 mph - N/A   Overcast
3:53 PM 5.0 °F -8.1 °F 1.4 °F 85% 29.98 in 10.0 mi NNE 8.1 mph - N/A   Overcast
4:15 PM 6.8 °F -4.8 °F 3.2 °F 85% 29.99 in 10.0 mi North 6.9 mph - N/A   Overcast
4:34 PM 6.8 °F -4.8 °F 3.2 °F 85% 30.00 in 10.0 mi North 6.9 mph - N/A   Overcast
4:53 PM 6.8 °F -6.9 °F 3.2 °F 85% 29.98 in 10.0 mi North 9.2 mph - N/A   Mostly Cloudy
5:15 PM 6.8 °F -5.9 °F 3.2 °F 85% 29.98 in 10.0 mi NNE 8.1 mph - N/A   Scattered Clouds
5:35 PM 6.8 °F -7.8 °F 3.2 °F 85% 29.97 in 10.0 mi NNE 10.4 mph - N/A   Scattered Clouds
5:52 PM 6.8 °F -3.5 °F 3.2 °F 85% 29.98 in 10.0 mi NNE 5.8 mph - N/A   Clear
6:15 PM 6.8 °F -2.0 °F 3.2 °F 85% 30.00 in 10.0 mi NNE 4.6 mph - N/A   Scattered Clouds
6:35 PM 6.8 °F -2.0 °F 3.2 °F 85% 30.00 in 10.0 mi NE 4.6 mph - N/A   Overcast
6:52 PM 6.8 °F -2.0 °F 3.2 °F 85% 30.00 in 10.0 mi NNE 4.6 mph - N/A   Overcast
7:15 PM 6.8 °F -2.0 °F 3.2 °F 85% 30.01 in 10.0 mi ENE 4.6 mph - N/A   Overcast
7:34 PM 6.8 °F -2.0 °F 3.2 °F 85% 30.03 in 10.0 mi ENE 4.6 mph - N/A   Overcast
7:53 PM 6.8 °F -0.1 °F 3.2 °F 85% 30.04 in 10.0 mi NNE 3.5 mph - N/A   Overcast
8:15 PM 6.8 °F -2.0 °F 3.2 °F 85% 30.04 in 10.0 mi North 4.6 mph - N/A   Overcast
8:35 PM 6.8 °F -3.5 °F 3.2 °F 85% 30.02 in 10.0 mi North 5.8 mph - N/A Snow Light Snow
8:52 PM 6.8 °F -2.0 °F 3.2 °F 85% 30.02 in 10.0 mi NNW 4.6 mph - N/A Snow Light Snow
9:15 PM 6.8 °F -4.8 °F 3.2 °F 85% 30.01 in 10.0 mi North 6.9 mph - N/A Snow Light Snow
9:34 PM 6.8 °F -4.8 °F 3.2 °F 85% 30.01 in 10.0 mi North 6.9 mph - N/A Snow Light Snow
9:53 PM 6.8 °F -5.9 °F 3.2 °F 85% 30.00 in 10.0 mi North 8.1 mph - N/A Snow Light Snow
10:15 PM 6.8 °F -5.9 °F 3.2 °F 85% 29.99 in 10.0 mi North 8.1 mph - N/A Snow Light Snow
10:35 PM 6.8 °F -4.8 °F 1.4 °F 79% 29.98 in 10.0 mi North 6.9 mph - N/A   Scattered Clouds
10:53 PM 5.0 °F -8.1 °F 1.4 °F 85% 29.99 in 10.0 mi North 8.1 mph - N/A   Mostly Cloudy
11:15 PM 5.0 °F -10.0 °F 1.4 °F 85% 29.99 in 10.0 mi North 10.4 mph - N/A   Overcast
11:35 PM 5.0 °F -9.1 °F 1.4 °F 85% 29.99 in 10.0 mi North 9.2 mph - N/A   Mostly Cloudy
11:53 PM 5.0 °F -9.1 °F 1.4 °F 85% 29.99 in 10.0 mi North 9.2 mph - N/A   Mostly Cloudy